Location: Newark
(34.3481°N, 134.0494°E)
Time: 12:05:11
(UTC+00:00)

A-11 Canister half - All Passes

Search period start: 25 January 2020 00:00
Search period end: 04 February 2020 00:00
Orbit: 1517 x 1683 km, 47.2° (Epoch: 25 January)

Date Brightness Start Highest point End Pass type
(mag) Time Alt. Az. Time Alt. Az. Time Alt. Az.
25 Jan - 12:24:24 10° SSW 12:32:48 35° SE 12:40:59 10° ENE visible
25 Jan - 14:27:40 10° WSW 14:37:12 76° NNW 14:46:30 10° NE night (unlit)
25 Jan - 16:34:40 10° WNW 16:43:16 39° N 16:51:48 10° ENE visible
25 Jan - 18:41:29 10° NW 18:50:10 42° NNE 18:58:53 10° E visible
25 Jan - 20:46:36 10° NW 20:55:55 90° S 21:05:22 10° SE visible
25 Jan - 22:52:43 10° WNW 22:59:58 26° SW 23:07:23 10° S daylight
26 Jan - 12:01:43 10° S 12:09:57 33° SE 12:17:56 10° ENE visible
26 Jan - 14:04:42 10° WSW 14:14:16 79° NW 14:23:36 10° NE night (unlit)
26 Jan - 16:11:36 10° W 16:20:15 40° NNW 16:28:50 10° NE visible
26 Jan - 18:18:30 10° NW 18:27:11 41° NNE 18:35:50 10° E visible
26 Jan - 20:23:42 10° NW 20:33:00 86° NE 20:42:26 10° SE visible
26 Jan - 22:29:38 10° WNW 22:37:08 28° SW 22:44:48 10° S daylight
27 Jan - 11:39:05 10° S 11:47:06 30° SE 11:54:54 10° ENE visible
27 Jan - 13:41:44 10° SW 13:51:21 83° NW 14:00:42 10° NE visible
27 Jan - 15:48:31 10° W 15:57:15 41° NNW 16:05:53 10° NE visible
27 Jan - 17:55:33 10° NW 18:04:10 40° NNE 18:12:47 10° E visible
27 Jan - 20:00:47 10° NW 20:10:05 82° NE 20:19:30 10° ESE visible
27 Jan - 22:06:34 10° WNW 22:14:18 31° SW 22:22:12 10° S daylight
28 Jan - 11:16:28 10° S 11:24:15 28° SE 11:31:50 10° ENE visible
28 Jan - 13:18:48 10° SW 13:28:26 87° NW 13:37:48 10° NE visible
28 Jan - 15:25:27 10° W 15:34:15 42° NNW 15:42:55 10° NE night (unlit)
28 Jan - 17:32:34 10° WNW 17:41:09 40° N 17:49:43 10° ENE visible
28 Jan - 19:37:53 10° NW 19:47:11 78° NE 19:56:33 10° ESE visible
28 Jan - 21:43:31 10° WNW 21:51:28 33° SW 21:59:33 10° S daylight
29 Jan - 10:53:53 10° S 11:01:24 26° SE 11:08:44 10° ENE visible
29 Jan - 12:55:51 10° SW 13:05:31 89° SE 13:14:54 10° NE visible
29 Jan - 15:02:22 10° W 15:11:15 43° NNW 15:19:58 10° NE night (unlit)
29 Jan - 17:09:35 10° WNW 17:18:09 39° N 17:26:40 10° ENE visible
29 Jan - 19:14:58 10° NW 19:24:15 74° NNE 19:33:36 10° ESE visible
29 Jan - 21:20:30 10° WNW 21:28:37 36° SW 21:36:54 10° SSE visible
30 Jan - 10:31:20 10° S 10:38:34 24° SE 10:45:36 10° ENE visible
30 Jan - 12:32:55 10° SW 12:42:36 84° SE 12:51:59 10° NE visible
30 Jan - 14:39:18 10° W 14:48:15 44° NNW 14:57:02 10° NE night (unlit)
30 Jan - 16:46:35 10° WNW 16:55:08 38° N 17:03:37 10° ENE visible
30 Jan - 18:52:04 10° NW 19:01:19 71° NNE 19:10:38 10° ESE visible
30 Jan - 20:57:29 10° WNW 21:05:47 38° SW 21:14:12 10° SSE visible
31 Jan - 10:08:49 10° S 10:15:43 22° SE 10:22:27 10° E visible
31 Jan - 12:10:01 10° SW 12:19:42 80° SE 12:29:05 10° NE visible
31 Jan - 14:16:13 10° W 14:25:15 46° NNW 14:34:05 10° NE night (unlit)
31 Jan - 16:23:34 10° WNW 16:32:07 38° N 16:40:34 10° ENE visible
31 Jan - 18:29:09 10° NW 18:38:24 68° NNE 18:47:39 10° ESE visible
31 Jan - 20:34:29 10° WNW 20:42:56 41° SW 20:51:30 10° SSE visible
01 Feb - 09:46:22 10° SSE 09:52:53 20° SE 09:59:15 10° E visible
01 Feb - 11:47:06 10° SW 11:56:48 76° SE 12:06:10 10° ENE visible
01 Feb - 13:53:09 10° W 14:02:15 47° NNW 14:11:10 10° NE visible
01 Feb - 16:00:34 10° WNW 16:09:06 37° N 16:17:32 10° ENE visible
01 Feb - 18:06:15 10° NW 18:15:27 65° NNE 18:24:40 10° ESE visible
01 Feb - 20:11:31 10° WNW 20:20:05 44° SW 20:28:46 10° SSE visible
02 Feb - 09:23:58 10° SSE 09:30:03 18° SE 09:36:00 10° E visible
02 Feb - 11:24:12 10° SW 11:33:53 72° SE 11:43:16 10° ENE visible
02 Feb - 13:30:05 10° W 13:39:16 49° NNW 13:48:15 10° NE visible
02 Feb - 15:37:32 10° WNW 15:46:05 37° N 15:54:30 10° ENE night (unlit)
02 Feb - 17:43:19 10° NW 17:52:31 62° NNE 18:01:41 10° ESE visible
02 Feb - 19:48:32 10° WNW 19:57:14 48° SW 20:06:02 10° SSE visible
03 Feb - 09:01:38 10° SSE 09:07:12 17° SE 09:12:40 10° E visible
03 Feb - 11:01:20 10° SW 11:11:00 68° SE 11:20:20 10° ENE visible
03 Feb - 13:07:00 10° W 13:16:17 51° NNW 13:25:19 10° NE visible
03 Feb - 15:14:30 10° WNW 15:23:04 37° N 15:31:29 10° ENE night (unlit)
03 Feb - 17:20:24 10° NW 17:29:34 59° NNE 17:38:41 10° ESE visible
03 Feb - 19:25:34 10° WNW 19:34:23 51° SW 19:43:16 10° SSE visible
